Location: Frankfurt am Main
(50.1109°N, 8.6821°E)
Time: 13:59:40
(UTC+01:00)

ISS - Pass Details

Date: 02 November 2021
Orbit: 417 x 422 km, 51.6° (Epoch: 07 December)

Event Time Altitude Azimuth Distance (km) Brightness Sun altitude
Exits shadow 03:57:54 11° 75° (ENE) 1,448 -0.2 -32.1°
Drops below altitude 10° 03:58:02 10° 75° (ENE) 1,502 -0.1 -32.1°
Sets 04:00:08 0° 76° (ENE) 2,366 1.2 -31.7°
